Lid_Strength_Index
1 -0 -2 -2 -2 -2 -2 -2 -2 -2 -2 -2 -2 -2 -2 -2 -2 -2 -2 -2 -2 -2 -2 -2 -2 -2 -2 -2 -2 -2 -2 -2 -2 -2 -2 -2 -2 -2 -2 -2 -2 -1 -2
-0 -1 -1 -2 -2 -1 -1 -2 -2 -2 -2 -2 -2 -2 -2 -2 -2 -2 -2 -2 -3 -2 -2 -2 -2 -2 -2 -2 -2 -2 -2 -2 -2 -2 -2 -2 -2 -2 -2 -2 -2 -1 -2
-0 -1 -1 -1 -2 -2 -2 -2 -2 -2 -2 -2 -2 -2 -2 -2 -2 -2 -2 -2 -2 -2 -2 -2 -2 -2 -2 -2 -2 -2 -2 -2 -2 -2 -2 -0 -1 -2 -2 -2 -2 -2 -2
-0 -1 -1 -1 -2 -2 -2 -2 -2 -2 -2 -2 -2 -2 -2 -2 -2 -2 -2 -2 -2 -2 -2 -2 -2 -2 -2 -2 -2 -2 -2 -2 -3 -2 -1 -1 -1 -2 -2 -2 -2 -2 -2
-0 -1 -1 -1 -2 -2 -2 -2 -2 -2 -2 -2 -2 -2 -2 -2 -2 -2 -2 -2 -2 -2 -2 -2 -2 -2 -2 -2 -2 -2 -2 -3 -2 -1 -0 -1 -0 -2 -2 -2 -2 -2 -2
-0 -1 -1 -1 -2 -2 -2 -2 -2 -2 -2 -2 -2 -2 -2 -2 -2 -2 -2 -2 -2 -2 -2 -2 -2 -2 -2 -2 -2 -2 -2 -3 -2 -0 0 -1 -1 -2 -2 -2 -2 -2 -2
-0 -0 -1 -1 -1 -2 -2 -2 -2 -2 -2 -2 -2 -2 -2 -2 -2 -2 -2 -2 -2 -2 -2 -2 -2 -2 -2 -2 -2 -2 -2 -2 -0 -0 0 0 -0 -2 -2 -2 -2 -2 -2
-0 -0 -1 0 -1 -1 -2 -1 -2 -2 -2 -2 -2 -2 -2 -2 -2 -2 -2 -2 -2 -3 -2 -2 -2 -2 -2 -2 -2 -3 -2 -2 -0 -0 -0 0 -2 -2 -2 -2 -2 -2 -2
-0 -0 -0 -0 0 0 -0 -1 -1 -2 -2 -2 -2 -2 -2 -3 -3 -2 -2 -2 -2 -2 -2 -2 -2 -2 -2 -2 -2 -2 -2 -1 1 0 -0 -0 -2 -2 -2 -2 -2 -2 -1
0 0 0 0 -0 0 0 1 -0 -1 -1 -2 -2 -1 -1 -2 -2 -1 -1 -2 -3 -3 -2 -2 -2 -2 -2 -2 -2 -1 -1 -1 1 1 0 -0 -2 -1 -1 -2 -1 -1 -0
1 1 0 0 -0 -0 0 1 1 -0 -0 -1 -1 -0 0 -0 -0 -0 -1 -2 -3 -3 -2 -2 -2 -2 -2 -1 -1 -1 -1 1 1 1 1 -2 -1 -1 -1 -0 -0 0 1
2 2 1 1 0 -0 -1 0 0 0 0 -0 -0 1 -0 0 0 0 0 -0 -2 -2 -2 -2 -2 -1 -0 0 1 0 1 1 1 1 1 -1 -0 -0 -0 0 0 0 1
2 1 2 1 1 1 0 0 0 0 0 1 1 1 1 1 1 1 1 1 1 1 1 0 0 1 1 1 1 1 1 1 2 1 0 -2 -1 -1 -1 -0 -0 0 0
2 1 1 1 0 1 1 0 0 0 1 1 1 0 1 2 2 1 1 1 2 1 1 1 1 1 1 1 1 1 1 1 1 2 2 -0 -2 -1 -1 -1 -1 -1 -1
2 2 1 1 1 1 1 1 1 1 1 1 1 1 1 1 2 2 2 2 2 2 1 2 2 2 2 2 1 1 1 1 1 1 2 1 -1 -2 -2 -2 -2 -2 -2
2 2 1 1 1 1 1 1 1 1 1 1 1 1 1 1 2 2 2 2 2 2 2 2 2 2 2 2 1 1 1 1 1 1 1 2 0 -1 -2 -2 -2 -2 -2
2 1 1 1 1 1 1 1 1 1 0 0 0 1 1 1 2 2 2 2 2 2 2 2 3 3 3 3 3 2 2 1 1 1 1 2 1 1 -1 -2 -2 -2 -2
3 2 1 1 1 1 0 0 1 1 1 1 0 1 0 1 1 2 2 2 2 2 2 3 4 4 4 4 4 4 4 3 3 3 2 2 2 2 1 -1 -1 -1 -2
3 3 2 1 1 2 0 -0 -0 -0 -0 -0 -0 0 -0 -0 1 2 3 3 3 3 3 3 4 4 5 5 4 4 4 4 4 4 4 3 3 2 2 2 1 0 -1
3 2 2 1 1 2 1 -0 -0 -0 -0 -0 -0 0 1 0 1 1 3 3 3 3 3 2 3 3 3 4 4 5 5 5 5 5 4 3 3 3 3 3 3 2 2
7 3 2 2 1 2 2 1 1 1 0 0 -0 1 0 -0 -0 0 2 2 2 2 2 2 3 4 4 5 6 6 7 5 5 4 4 4 4 3 4 3 3 3 2
11 10 7 2 2 2 2 1 0 0 1 0 -0 0 0 0 0 0 1 2 2 2 3 3 4 4 5 5 5 7 7 5 5 5 4 5 4 4 4 4 4 3 3
8 10 10 8 3 2 2 1 1 1 1 1 1 1 0 0 0 0 0 1 2 2 3 3 4 4 4 5 5 5 7 8 6 4 3 4 4 4 3 3 3 3 3
6 6 8 10 7 2 2 1 1 2 2 1 1 0 0 0 0 0 0 1 1 2 3 3 3 3 4 4 5 5 5 5 6 6 5 4 4 5 5 5 5 4 3
6 6 9 7 5 2 3 1 2 2 1 1 1 1 1 0 0 0 1 1 1 1 2 2 3 3 3 3 4 4 5 5 5 6 7 5 4 4 5 3 3 3 4
7 6 7 6 4 4 4 2 2 2 2 2 2 2 2 1 3 4 3 2 1 1 1 1 1 2 2 2 2 2 3 5 5 6 6 6 6 4 3 4 3 4 3